Location: Finkenwalde
(53.3770°N, 14.6418°E)
Time: 09:19:10
(UTC+00:00)

CZ-4B DEB - Pass Details

Date: 05 February 2023
Orbit: 839 x 859 km, 99.1° (Epoch: 19 March)

Event Time Altitude Azimuth Distance (km) Brightness Sun altitude
Rises 17:23:12 0° 168° (SSE) 3,383 7.3 -13.8°
Reaches altitude 10° 17:25:33 10° 170° (S) 2,454 6.6 -14.1°
Maximum altitude 17:30:59 73° 255° (WSW) 885 4.5 -15.0°
Drops below altitude 10° 17:36:29 10° 341° (NNW) 2,481 6.8 -15.8°
Sets 17:38:53 0° 343° (NNW) 3,423 7.5 -16.1°
